"2009-09-07 00:00:00",1218529,3.378,233,6.152,0.128,19.18,108.9623,22.23,23.23,30.38,0,111.1,13.14,23.06,195.0
"2009-09-07 00:00:30",1218530,3.542,245.8,2.954,0.246,19.29,108.9634,22.23,23.24,30.16,0,111.1,13.14,23.06,207.8
"2009-09-07 00:01:00",1218531,4.435,243.8,7.403,0.346,19.32,108.976,22.26,23.25,29.84,0,111.1,13.14,23.09,205.8
"2009-09-07 00:01:30",1218532,4.731,249.3,3.997,0.405,19.33,108.9909,22.3,23.25,29.86,0,111.1,13.14,23.13,211.3
"2009-09-07 00:02:00",1218533,4.695,261.9,5.623,0.319,19.36,108.996,22.32,23.28,29.77,0,111.1,13.14,23.15,223.9
"2009-09-07 00:02:30",1218534,4.346,256.6,5.434,0.377,19.37,108.996,22.32,23.29,29.7,0,111.1,13.14,23.15,218.6
"2009-09-07 00:03:00",1218535,3.701,256.4,1.886,0.478,19.19,108.996,22.32,23.3,30.23,0,111.1,13.14,23.15,218.4
"2009-09-07 00:03:30",1218536,2.371,248.6,5.671,0.371,19.23,108.9988,22.32,23.33,30.24,0,111.1,13.14,23.15,210.6
"2009-09-07 00:04:00",1218537,2.697,240.6,9.22,0.307,19.15,109.003,22.33,23.32,30.03,0,111.1,13.14,23.16,202.6
"2009-09-07 00:04:30",1218538,3.157,242.5,4.332,0.273,19.17,109.0153,22.37,23.34,30.1,0,111.1,13.14,23.20,204.5
"2009-09-07 00:05:00",1218539,3.033,235.3,4.485,0.21,19.14,109.0193,22.38,23.35,30.24,0,111.1,13.14,23.21,197.3
"2009-09-07 00:05:30",1218540,2.531,243.3,5.721,0.254,19.16,109.0294,22.4,23.37,30.23,0,111.1,13.14,23.23,205.3
"2009-09-07 00:06:00",1218541,2.495,233.6,4.933,0.284,19.14,109.0296,22.4,23.39,30.38,0,111.1,13.14,23.23,195.6
"2009-09-07 00:06:30",1218542,2.132,237.4,4.468,0.279,19.18,109.0296,22.4,23.4,30.38,0,111.1,13.14,23.23,199.4
"2009-09-07 00:07:00",1218543,3.537,246.1,3.885,0.598,19.32,109.031,22.41,23.41,30.31,0,111.1,13.14,23.24,208.1
"2009-09-07 00:07:30",1218544,4.28,246,6.3,0.178,19.3,109.0375,22.42,23.42,30.3,0,111.1,13.14,23.25,208.0
"2009-09-07 00:08:00",1218545,4.257,240.6,6.026,0.235,19.33,109.0417,22.43,23.45,30.43,0,111.1,13.14,23.26,202.6
"2009-09-07 00:08:30",1218546,2.876,243.2,5.846,0.437,19.39,109.0395,22.43,23.46,30.7,0,111.1,13.14,23.26,205.2
"2009-09-07 00:09:00",1218547,2.34,238.7,10.6,0.368,19.36,109.0072,22.34,23.41,30.71,0,111.1,13.14,23.17,200.7
"2009-09-07 00:09:30",1218548,2.278,226.4,4.87,0.226,19.27,108.996,22.32,23.38,30.69,0,111.1,13.14,23.15,188.4
"2009-09-07 00:10:00",1218549,3.071,224.5,3.139,0.398,19.3,108.9945,22.31,23.36,31.04,0,111.1,13.14,23.14,186.5
"2009-09-07 00:10:30",1218550,2.455,217.5,4.781,0.301,19.34,108.9814,22.28,23.34,31.05,0,111.1,13.14,23.11,179.5
"2009-09-07 00:11:00",1218551,2.379,219.3,5.969,0.186,19.36,108.9903,22.3,23.32,30.98,0,111.1,13.14,23.13,181.3
"2009-09-07 00:11:30",1218552,2.549,218.1,3.567,0.159,19.37,108.9963,22.32,23.32,30.99,0,111.1,13.14,23.15,180.1
"2009-09-07 00:12:00",1218553,2.673,214.6,7.879,0.161,19.37,108.9966,22.32,23.32,30.98,0,111.1,13.14,23.15,176.6
"2009-09-07 00:12:30",1218554,3.155,223.7,4.272,0.232,19.42,108.996,22.32,23.33,31.05,0,111.1,13.14,23.15,185.7
"2009-09-07 00:13:00",1218555,3.368,233.5,3.295,0.185,19.47,108.9966,22.32,23.33,30.92,0,111.1,13.14,23.15,195.5
"2009-09-07 00:13:30",1218556,3.514,231,4.989,0.169,19.48,108.9963,22.32,23.36,30.94,0,111.1,13.14,23.15,193.0
"2009-09-07 00:14:00",1218557,3.258,227.7,4.835,0.192,19.53,108.9983,22.32,23.35,31.06,0,111.1,13.14,23.15,189.7
"2009-09-07 00:14:30",1218558,3.098,238.1,8.13,0.158,19.55,109.0006,22.33,23.37,31.04,0,111.1,13.14,23.16,200.1
"2009-09-07 00:15:00",1218559,2.914,235.2,6.614,0.332,19.56,109.0082,22.35,23.36,31.03,0,111.1,13.14,23.18,197.2
"2009-09-07 00:15:30",1218560,3.86,222.3,5.027,0.726,19.65,109.0101,22.35,23.37,30.97,0,111.1,13.14,23.18,184.3
"2009-09-07 00:16:00",1218561,4.327,223.3,5.101,0.3,19.68,109.0085,22.35,23.38,30.94,0,111.1,13.14,23.18,185.3
"2009-09-07 00:16:30",1218562,3.334,206.9,7.988,0.242,19.64,109.0094,22.35,23.39,31.19,0,111.1,13.14,23.18,168.9
"2009-09-07 00:17:00",1218563,4.082,202,4.231,0.505,19.7,109.0143,22.36,23.38,31.28,0,111.1,13.14,23.19,164.0
"2009-09-07 00:17:30",1218564,5.044,210.9,8.62,0.251,19.79,109.0171,22.37,23.36,30.95,0,111.1,13.14,23.20,172.9
"2009-09-07 00:18:00",1218565,5.185,227.4,4.524,0.32,19.83,109.0192,22.38,23.37,31.09,0,111.1,13.14,23.21,189.4
"2009-09-07 00:18:30",1218566,4.677,230.1,2.696,0.164,19.85,109.0214,22.38,23.36,30.72,0,111.1,13.15,23.21,192.1
"2009-09-07 00:19:00",1218567,3.783,220.7,7.956,0.373,19.81,109.0156,22.37,23.35,30.94,0,111.1,13.14,23.20,182.7
"2009-09-07 00:19:30",1218568,4.641,204.3,9.33,0.508,19.75,109.0014,22.33,23.33,31.19,0,111.1,13.15,23.16,166.3
"2009-09-07 00:20:00",1218569,4.266,204.8,5.893,0.271,19.73,108.9933,22.31,23.34,31.15,0,111.1,13.15,23.14,166.8
"2009-09-07 00:20:30",1218570,4.281,220.3,4.629,0.194,19.72,108.9913,22.3,23.32,31.17,0,111.1,13.15,23.13,182.3
"2009-09-07 00:21:00",1218571,4.225,229.1,7.068,0.349,19.79,108.9938,22.31,23.32,30.94,0,111.1,13.14,23.14,191.1
"2009-09-07 00:21:30",1218572,4.404,218.3,6.511,0.306,19.79,108.9953,22.31,23.31,30.86,0,111.1,13.14,23.14,180.3
"2009-09-07 00:22:00",1218573,4.641,219.4,4.771,0.338,19.8,108.9957,22.31,23.3,30.82,0,111.1,13.14,23.14,181.4
"2009-09-07 00:22:30",1218574,5,220.4,5.028,0.306,19.72,108.9924,22.31,23.28,31.06,0,111.1,13.14,23.14,182.4
"2009-09-07 00:23:00",1218575,5.785,224.8,6.424,0.451,19.69,108.9812,22.28,23.28,31.34,0,111.1,13.14,23.11,186.8
"2009-09-07 00:23:30",1218576,5.21,227.7,4.095,0.401,19.68,108.9715,22.25,23.28,31.38,0,111.1,13.14,23.08,189.7
"2009-09-07 00:24:00",1218577,4.454,218,4.484,0.41,19.67,108.9656,22.24,23.26,31.45,0,111.1,13.14,23.07,180.0
"2009-09-07 00:24:30",1218578,4.308,216,3.519,0.412,19.6,108.9653,22.24,23.24,31.49,0,111.1,13.14,23.07,178.0
"2009-09-07 00:25:00",1218579,5.141,224.3,3.502,0.352,19.64,108.9653,22.24,23.24,31.6,0,111.1,13.14,23.07,186.3
"2009-09-07 00:25:30",1218580,4.666,223.1,3.04,0.27,19.65,108.9653,22.24,23.25,31.66,0,111.1,13.14,23.07,185.1
"2009-09-07 00:26:00",1218581,5.502,231.9,2.489,0.571,19.67,108.9653,22.24,23.24,31.67,0,111.1,13.14,23.07,193.9
"2009-09-07 00:26:30",1218582,4.91,228.8,3.06,0.33,19.63,108.963,22.23,23.22,31.79,0,111.1,13.15,23.06,190.8
"2009-09-07 00:27:00",1218583,7.024,232.7,4.353,0.652,19.7,108.9644,22.23,23.22,31.08,0,111.1,13.15,23.06,194.7
"2009-09-07 00:27:30",1218584,6.532,233.2,2.385,0.291,19.69,108.9628,22.23,23.2,30.79,0,111.1,13.15,23.06,195.2
"2009-09-07 00:28:00",1218585,6.95,236.3,2.25,0.231,19.69,108.9613,22.23,23.2,30.65,0,111.1,13.15,23.06,198.3
"2009-09-07 00:28:30",1218586,7.319,240.5,2.608,0.414,19.73,108.9619,22.23,23.21,30.61,0,111.1,13.15,23.06,202.5
"2009-09-07 00:29:00",1218587,7.424,237.7,2.367,0.245,19.7,108.9628,22.23,23.21,30.52,0,111.1,13.15,23.06,199.7
"2009-09-07 00:29:30",1218588,7.158,237.5,3.194,0.143,19.7,108.9636,22.23,23.19,30.54,0,111.1,13.15,23.06,199.5
"2009-09-07 00:30:00",1218589,7.104,235.8,1.843,0.149,19.69,108.9644,22.23,23.2,30.56,0,111.1,13.15,23.06,197.8
"2009-09-07 00:30:30",1218590,6.558,234.8,4.314,0.348,19.73,108.9639,22.23,23.21,30.68,0,111.1,13.15,23.06,196.8
"2009-09-07 00:31:00",1218591,7.193,241.5,1.051,0.182,19.85,108.9639,22.23,23.2,30.47,0,111,13.15,23.06,203.5
"2009-09-07 00:31:30",1218592,6.412,246,2.784,0.372,19.97,108.9636,22.23,23.2,30.34,0,111,13.15,23.06,208.0
"2009-09-07 00:32:00",1218593,6.104,247.5,2.259,0.247,19.97,108.9653,22.24,23.21,30.08,0,111,13.15,23.07,209.5
"2009-09-07 00:32:30",1218594,5.964,247.4,4.02,0.194,20.01,108.9653,22.24,23.21,29.91,0,111,13.15,23.07,209.4
"2009-09-07 00:33:00",1218595,6.37,241.5,1.26,0.197,19.98,108.9653,22.24,23.2,30.18,0,111,13.15,23.07,203.5
"2009-09-07 00:33:30",1218596,5.94,248.8,3.609,0.229,20.18,108.9653,22.24,23.2,29.7,0,111,13.15,23.07,210.8
"2009-09-07 00:34:00",1218597,6.113,251.5,2.613,0.19,20.1,108.9653,22.24,23.22,29.92,0,111,13.15,23.07,213.5
"2009-09-07 00:34:30",1218598,5.588,241.8,2.363,0.281,20.13,108.9653,22.24,23.22,29.92,0,111,13.15,23.07,203.8
"2009-09-07 00:35:00",1218599,5.863,240.8,2.675,0.17,20.1,108.9653,22.24,23.23,29.97,0,111,13.15,23.07,202.8
"2009-09-07 00:35:30",1218600,5.626,245.4,2.086,0.244,20.13,108.9653,22.24,23.23,29.89,0,111,13.15,23.07,207.4
"2009-09-07 00:36:00",1218601,5.793,252.9,1.463,0.454,20.1,108.965,22.24,23.22,29.83,0,111,13.15,23.07,214.9
"2009-09-07 00:36:30",1218602,6.122,251.5,1.515,0.297,20.03,108.9644,22.23,23.24,30.17,0,111,13.15,23.06,213.5
"2009-09-07 00:37:00",1218603,5.332,246.7,5.458,0.297,20.03,108.9619,22.23,23.24,30.01,0,111,13.15,23.06,208.7
"2009-09-07 00:37:30",1218604,4.866,262.3,3.619,0.368,20.08,108.9557,22.21,23.22,29.54,0,111,13.15,23.04,224.3
"2009-09-07 00:38:00",1218605,4.564,257.7,2.832,0.283,19.98,108.9508,22.2,23.22,29.44,0,111,13.15,23.03,219.7
"2009-09-07 00:38:30",1218606,4.595,259.5,3.437,0.336,19.95,108.9505,22.2,23.21,29.72,0,111,13.15,23.03,221.5
"2009-09-07 00:39:00",1218607,4.41,257.4,6.914,0.261,19.96,108.9507,22.2,23.22,29.58,0,111,13.15,23.03,219.4
"2009-09-07 00:39:30",1218608,4.294,264.9,8.86,0.377,19.9,108.9563,22.21,23.22,29.74,0,111,13.15,23.04,226.9
"2009-09-07 00:40:00",1218609,3.936,272.7,4.057,0.436,19.84,108.96,22.22,23.22,29.8,0,111,13.15,23.05,234.7
"2009-09-07 00:40:30",1218610,3.218,270.4,8.95,0.346,19.82,108.9652,22.24,23.23,29.89,0,111,13.15,23.07,232.4
"2009-09-07 00:41:00",1218611,4.518,250.9,5.208,0.742,19.75,108.9645,22.23,23.23,30.02,0,111,13.15,23.06,212.9
"2009-09-07 00:41:30",1218612,4.745,252.7,11.73,0.362,19.81,108.9545,22.21,23.21,30.16,0,111,13.15,23.04,214.7
"2009-09-07 00:42:00",1218613,4.799,245.2,4.344,0.197,19.88,108.9582,22.22,23.2,29.98,0,111,13.15,23.05,207.2
"2009-09-07 00:42:30",1218614,4.655,247.6,3.076,0.211,19.94,108.9594,22.22,23.19,29.88,0,111,13.15,23.05,209.6
"2009-09-07 00:43:00",1218615,5.514,248.8,2.21,0.245,19.83,108.9622,22.23,23.2,30.1,0,111,13.15,23.06,210.8
"2009-09-07 00:43:30",1218616,5.479,246.5,3.218,0.267,19.72,108.965,22.24,23.2,30.49,0,111,13.15,23.07,208.5
"2009-09-07 00:44:00",1218617,5.682,251.9,2.9,0.258,19.95,108.969,22.25,23.19,30.3,0,111,13.15,23.08,213.9
"2009-09-07 00:44:30",1218618,5.421,253,2.333,0.266,20.01,108.9709,22.25,23.21,29.88,0,111,13.15,23.08,215.0
"2009-09-07 00:45:00",1218619,4.538,257.9,5.54,0.635,20.06,108.978,22.27,23.22,29.72,0,111,13.15,23.10,219.9
"2009-09-07 00:45:30",1218620,3.544,254.1,11.56,0.305,19.98,108.9865,22.29,23.23,29.74,0,111,13.16,23.12,216.1
"2009-09-07 00:46:00",1218621,4.222,257.1,8,0.191,20.01,108.9887,22.3,23.23,29.76,0,111,13.16,23.13,219.1
"2009-09-07 00:46:30",1218622,4.376,256.8,4.467,0.248,20,108.993,22.31,23.24,29.83,0,111,13.16,23.14,218.8
"2009-09-07 00:47:00",1218623,4.022,258.1,5.339,0.459,20.06,108.9956,22.31,23.25,29.62,0,111,13.16,23.14,220.1
"2009-09-07 00:47:30",1218624,4.58,271.1,1.966,0.26,20.14,108.9972,22.32,23.25,29.62,0,111,13.16,23.15,233.1
"2009-09-07 00:48:00",1218625,4.727,282.2,5.08,0.278,20.17,108.9993,22.32,23.27,29.62,0,111,13.16,23.15,244.2
"2009-09-07 00:48:30",1218626,4.087,282.6,3.398,0.203,20.13,109.0011,22.33,23.25,29.61,0,111,13.16,23.16,244.6
"2009-09-07 00:49:00",1218627,3.91,277.9,2.813,0.256,20.13,109.0006,22.33,23.26,29.65,0,111,13.16,23.16,239.9
"2009-09-07 00:49:30",1218628,3.283,275.2,4.909,0.256,20.07,108.9992,22.32,23.26,29.65,0,111,13.16,23.15,237.2
"2009-09-07 00:50:00",1218629,3.671,271.8,3.864,0.383,19.97,108.9978,22.32,23.25,29.72,0,111,13.16,23.15,233.8
"2009-09-07 00:50:30",1218630,4.101,273.4,2.902,0.149,19.92,108.9972,22.32,23.28,29.87,0,111,13.16,23.15,235.4
"2009-09-07 00:51:00",1218631,3.671,271.4,4.127,0.469,19.92,108.9922,22.31,23.26,29.7,0,111,13.16,23.14,233.4
"2009-09-07 00:51:30",1218632,3.165,260,4.107,0.164,19.92,108.9894,22.3,23.26,29.79,0,111,13.16,23.13,222.0
"2009-09-07 00:52:00",1218633,3.273,269.8,4.151,0.209,19.93,108.9868,22.29,23.27,29.75,0,111,13.16,23.12,231.8
"2009-09-07 00:52:30",1218634,2.435,280.1,6.062,0.377,19.93,108.9868,22.29,23.26,29.71,0,111,13.16,23.12,242.1
"2009-09-07 00:53:00",1218635,2.617,271.8,2.757,0.122,19.96,108.9863,22.29,23.25,29.66,0,111,13.16,23.12,233.8
"2009-09-07 00:53:30",1218636,2.59,273.2,1.697,0.099,20,108.984,22.29,23.25,29.68,0,111,13.16,23.11,235.2
"2009-09-07 00:54:00",1218637,2.577,271.7,1.9,0.065,19.99,108.9866,22.29,23.26,29.67,0,111,13.16,23.12,233.7
"2009-09-07 00:54:30",1218638,2.426,272.2,1.966,0.171,20.04,108.9871,22.29,23.27,29.72,0,111,13.16,23.12,234.2
"2009-09-07 00:55:00",1218639,2.052,271.5,2.681,0.119,20.03,108.9885,22.3,23.28,29.75,0,111,13.16,23.13,233.5
"2009-09-07 00:55:30",1218640,1.886,273,3.674,0.108,20.02,108.9863,22.29,23.26,29.77,0,111,13.15,23.12,235.0
"2009-09-07 00:56:00",1218641,2.217,275.7,7.501,0.192,20.09,108.9852,22.29,23.27,29.82,0,111,13.15,23.12,237.7
"2009-09-07 00:56:30",1218642,1.904,263.8,4.449,0.261,20.1,108.988,22.3,23.28,29.75,0,111,13.15,23.13,225.8
"2009-09-07 00:57:00",1218643,1.748,266.8,4.912,0.098,20.15,108.9849,22.29,23.28,29.75,0,111,13.15,23.12,228.8
"2009-09-07 00:57:30",1218644,1.878,271.8,4.292,0.238,20.22,108.984,22.29,23.29,29.76,0,111,13.15,23.11,233.8
"2009-09-07 00:58:00",1218645,1.794,269.7,3.112,0.259,20.23,108.9818,22.28,23.29,29.75,0,111,13.15,23.11,231.7
"2009-09-07 00:58:30",1218646,2.145,276.5,2.423,0.284,20.23,108.9787,22.27,23.29,29.79,0,111,13.15,23.10,238.5
"2009-09-07 00:59:00",1218647,2.147,275.5,3.722,0.205,20.26,108.9773,22.27,23.28,29.75,0,111,13.15,23.10,237.5
"2009-09-07 00:59:30",1218648,1.932,261.6,5.488,0.15,20.29,108.9753,22.26,23.28,29.67,0,111,13.15,23.09,223.6
"2009-09-07 01:00:00",1218649,1.958,267,8.88,0.248,20.31,108.9689,22.25,23.29,29.66,0,111,13.15,23.08,229.0
"2009-09-07 01:00:30",1218650,2.098,262.7,6.348,0.172,20.26,108.9683,22.24,23.29,29.68,0,111,13.16,23.07,224.7
"2009-09-07 01:01:00",1218651,2.027,272.4,2.958,0.193,20.27,108.9686,22.25,23.27,29.67,0,111,13.16,23.08,234.4
"2009-09-07 01:01:30",1218652,2.124,268.5,3.246,0.096,20.29,108.9683,22.24,23.27,29.57,0,111,13.16,23.07,230.5
"2009-09-07 01:02:00",1218653,2.167,254.4,3.101,0.113,20.25,108.9705,22.25,23.27,29.68,0,111,13.16,23.08,216.4
"2009-09-07 01:02:30",1218654,2.356,257.1,5.961,0.163,20.22,108.9701,22.25,23.25,29.94,0,111,13.16,23.08,219.1
"2009-09-07 01:03:00",1218655,2.688,248.8,3.515,0.128,20.24,108.9594,22.22,23.26,30.02,0,111,13.16,23.05,210.8
"2009-09-07 01:03:30",1218656,2.645,246.4,1.073,0.1,20.29,108.9469,22.19,23.24,29.96,0,111,13.16,23.02,208.4
"2009-09-07 01:04:00",1218657,2.374,245.9,2.798,0.094,20.29,108.9417,22.18,23.24,29.93,0,111,13.16,23.01,207.9
"2009-09-07 01:04:30",1218658,2.108,255.2,3.042,0.08,20.29,108.9376,22.17,23.22,30.01,0,111,13.16,23.00,217.2
"2009-09-07 01:05:00",1218659,2.376,259.1,4.504,0.234,20.31,108.941,22.17,23.22,29.98,0,111,13.16,23.00,221.1
"2009-09-07 01:05:30",1218660,2.263,257.2,2.76,0.213,20.32,108.9407,22.17,23.2,30.1,0,111,13.16,23.00,219.2
"2009-09-07 01:06:00",1218661,1.912,260.4,5.311,0.217,20.27,108.9412,22.18,23.19,30.08,0,111,13.16,23.00,222.4
"2009-09-07 01:06:30",1218662,1.766,261.1,3.81,0.137,20.29,108.9286,22.14,23.2,30,0,111,13.16,22.97,223.1
"2009-09-07 01:07:00",1218663,1.522,256.6,5.263,0.164,20.29,108.9222,22.13,23.17,29.98,0,111,13.16,22.96,218.6
"2009-09-07 01:07:30",1218664,1.866,257,4.279,0.209,20.29,108.9244,22.13,23.17,29.98,0,111,13.16,22.96,219.0
"2009-09-07 01:08:00",1218665,1.897,267.4,3.711,0.125,20.42,108.926,22.14,23.16,29.89,0,111,13.17,22.97,229.4
"2009-09-07 01:08:30",1218666,1.911,271.2,2.826,0.155,20.46,108.9193,22.12,23.14,29.86,0,111,13.17,22.95,233.2
"2009-09-07 01:09:00",1218667,1.792,263.7,3.62,0.095,20.34,108.9059,22.08,23.14,29.86,0,111,13.17,22.91,225.7
"2009-09-07 01:09:30",1218668,1.641,260.5,1.512,0.046,20.32,108.8969,22.06,23.12,29.96,0,111,13.17,22.89,222.5
"2009-09-07 01:10:00",1218669,1.683,261.2,0.956,0.03,20.33,108.895,22.06,23.12,29.9,0,111,13.17,22.89,223.2
"2009-09-07 01:10:30",1218670,1.67,261.9,2.624,0.053,20.42,108.8974,22.06,23.09,29.89,0,111,13.17,22.89,223.9
"2009-09-07 01:11:00",1218671,1.558,258.9,5.373,0.121,20.42,108.8982,22.06,23.08,29.88,0,110.9,13.17,22.89,220.9
"2009-09-07 01:11:30",1218672,1.411,258.6,3.205,0.122,20.42,108.8849,22.03,23.08,29.95,0,110.9,13.17,22.86,220.6
"2009-09-07 01:12:00",1218673,1.467,260.4,2.772,0.077,20.51,108.8732,22,23.06,29.82,0,110.9,13.17,22.83,222.4
"2009-09-07 01:12:30",1218674,1.275,253.4,2.114,0.062,20.53,108.8699,21.99,23.04,29.78,0,110.9,13.17,22.82,215.4
"2009-09-07 01:13:00",1218675,1.136,253.8,1.617,0.054,20.53,108.8701,21.99,23.04,29.74,0,110.9,13.17,22.82,215.8
"2009-09-07 01:13:30",1218676,1.123,252.5,2.543,0.065,20.55,108.8701,21.99,23.01,29.71,0,110.9,13.17,22.82,214.5
"2009-09-07 01:14:00",1218677,1.06,248.1,0.898,0.053,20.54,108.8648,21.98,23.02,29.71,0,110.9,13.17,22.81,210.1
"2009-09-07 01:14:30",1218678,1.056,251.3,2.176,0.094,20.58,108.8586,21.96,23,29.76,0,110.9,13.17,22.79,213.3
"2009-09-07 01:15:00",1218679,1.19,252.1,5.746,0.093,20.56,108.8463,21.93,22.97,29.69,0,111,13.17,22.76,214.1
"2009-09-07 01:15:30",1218680,1.595,235.1,6.345,0.14,20.36,108.8367,21.91,22.98,29.93,0,110.9,13.17,22.74,197.1
"2009-09-07 01:16:00",1218681,1.057,234.2,3.382,0.053,20.57,108.8364,21.91,22.96,29.98,0,110.9,13.17,22.73,196.2
"2009-09-07 01:16:30",1218682,1.047,237.8,3.715,0.107,20.61,108.8364,21.91,22.96,29.63,0,110.9,13.17,22.73,199.8
"2009-09-07 01:17:00",1218683,0.989,228.1,6.28,0.131,20.54,108.8356,21.9,22.94,29.76,0,110.9,13.17,22.73,190.1
"2009-09-07 01:17:30",1218684,0.996,224.4,1.828,0.065,20.54,108.8226,21.87,22.93,29.66,0,110.9,13.17,22.70,186.4
"2009-09-07 01:18:00",1218685,1.064,222.1,1.815,0.063,20.51,108.8078,21.83,22.93,29.56,0,110.9,13.18,22.66,184.1
"2009-09-07 01:18:30",1218686,1.062,222,1.342,0.055,20.49,108.8027,21.82,22.92,29.56,0,110.9,13.18,22.65,184.0
"2009-09-07 01:19:00",1218687,1.105,218.9,1.171,0.05,20.6,108.8027,21.82,22.9,29.57,0,110.9,13.18,22.65,180.9
"2009-09-07 01:19:30",1218688,1.064,216,2,0.039,20.62,108.8027,21.82,22.89,29.6,0,110.9,13.18,22.65,178.0
"2009-09-07 01:20:00",1218689,1.076,216.2,1.926,0.035,20.65,108.8024,21.82,22.87,29.54,0,110.9,13.18,22.65,178.2
"2009-09-07 01:20:30",1218690,1.136,218.1,3.634,0.066,20.54,108.8008,21.81,22.87,29.5,0,110.9,13.18,22.64,180.1
"2009-09-07 01:21:00",1218691,1.154,214.3,0.973,0.065,20.6,108.784,21.77,22.87,29.52,0,110.9,13.18,22.60,176.3
"2009-09-07 01:21:30",1218692,1.204,210.5,2.386,0.066,20.46,108.776,21.75,22.86,29.58,0,110.9,13.18,22.58,172.5
"2009-09-07 01:22:00",1218693,1.095,207.8,1.132,0.031,20.65,108.7723,21.74,22.84,29.68,0,110.9,13.18,22.57,169.8
"2009-09-07 01:22:30",1218694,1.212,214,2.599,0.041,20.52,108.7778,21.76,22.83,29.7,0,110.9,13.18,22.58,176.0
"2009-09-07 01:23:00",1218695,1.08,214.6,1.129,0.056,20.67,108.7827,21.77,22.82,29.69,0,110.9,13.18,22.60,176.6
"2009-09-07 01:23:30",1218696,1.169,216.3,2.234,0.102,20.5,108.7879,21.78,22.8,29.68,0,110.9,13.18,22.61,178.3
"2009-09-07 01:24:00",1218697,1.305,213.1,2.59,0.059,20.37,108.7925,21.79,22.79,29.7,0,110.9,13.18,22.62,175.1
"2009-09-07 01:24:30",1218698,1.377,216.8,1.591,0.068,20.42,108.7909,21.79,22.8,29.7,0,110.9,13.18,22.62,178.8
"2009-09-07 01:25:00",1218699,1.345,215.9,2.488,0.039,20.4,108.7804,21.76,22.77,29.67,0,110.9,13.18,22.59,177.9
"2009-09-07 01:25:30",1218700,1.333,216.7,2.834,0.071,20.52,108.7718,21.74,22.77,29.61,0,110.9,13.18,22.57,178.7
"2009-09-07 01:26:00",1218701,1.515,217.4,2.183,0.109,20.54,108.7639,21.72,22.77,29.63,0,110.9,13.19,22.55,179.4
"2009-09-07 01:26:30",1218702,1.43,226.8,3.621,0.171,20.56,108.7667,21.73,22.76,29.49,0,110.9,13.19,22.55,188.8
"2009-09-07 01:27:00",1218703,1.071,231.3,3.413,0.132,20.61,108.7695,21.73,22.74,29.23,0,110.9,13.19,22.56,193.3
"2009-09-07 01:27:30",1218704,1.007,211.3,9.65,0.141,20.49,108.7701,21.74,22.74,29.28,0,110.9,13.19,22.56,173.3
"2009-09-07 01:28:00",1218705,1.219,207.1,7.493,0.201,20.48,108.7713,21.74,22.73,29.65,0,110.9,13.19,22.57,169.1
"2009-09-07 01:28:30",1218706,1.346,210,4.454,0.094,20.32,108.7666,21.73,22.72,29.98,0,110.9,13.19,22.55,172.0
"2009-09-07 01:29:00",1218707,1.405,211.6,1.368,0.039,20.5,108.7539,21.69,22.7,30.09,0,110.9,13.19,22.52,173.6
"2009-09-07 01:29:30",1218708,1.31,212.9,1.565,0.065,20.33,108.7444,21.67,22.7,30.11,0,110.9,13.19,22.50,174.9
"2009-09-07 01:30:00",1218709,1.091,212.6,1.395,0.083,20.61,108.7385,21.65,22.7,30.11,0,110.9,13.19,22.48,174.6
"2009-09-07 01:30:30",1218710,1.166,204.9,3.303,0.072,20.44,108.7382,21.65,22.69,30.17,0,110.9,13.19,22.48,166.9
"2009-09-07 01:31:00",1218711,1.361,202.1,3.087,0.121,20.39,108.7382,21.65,22.69,30.42,0,110.9,13.19,22.48,164.1
"2009-09-07 01:31:30",1218712,1.502,199.8,2.725,0.097,20.49,108.7382,21.65,22.67,30.53,0,110.9,13.19,22.48,161.8
"2009-09-07 01:32:00",1218713,1.456,199.7,5.448,0.059,20.46,108.7382,21.65,22.66,30.58,0,110.9,13.19,22.48,161.7
"2009-09-07 01:32:30",1218714,1.252,204.3,6.112,0.087,20.37,108.7379,21.65,22.66,30.6,0,110.9,13.19,22.48,166.3
"2009-09-07 01:33:00",1218715,1.506,200.6,3.35,0.1,20.53,108.7317,21.64,22.64,30.6,0,110.9,13.19,22.46,162.6
"2009-09-07 01:33:30",1218716,1.448,203.4,2.209,0.122,20.51,108.7199,21.61,22.64,30.52,0,110.9,13.19,22.43,165.4
"2009-09-07 01:34:00",1218717,1.557,203.2,3.012,0.068,20.56,108.7095,21.58,22.62,30.48,0,110.9,13.19,22.41,165.2
"2009-09-07 01:34:30",1218718,1.392,202.5,2.176,0.046,20.51,108.7045,21.57,22.62,30.47,0,110.9,13.19,22.39,164.5
"2009-09-07 01:35:00",1218719,1.443,203.9,1.011,0.075,20.57,108.7045,21.57,22.61,30.4,0,110.9,13.19,22.39,165.9
"2009-09-07 01:35:30",1218720,1.399,205.8,1.805,0.061,20.53,108.7045,21.57,22.61,30.28,0,110.9,13.19,22.39,167.8
"2009-09-07 01:36:00",1218721,1.364,212.6,4.143,0.06,20.47,108.7045,21.57,22.61,30.2,0,110.9,13.2,22.39,174.6
"2009-09-07 01:36:30",1218722,1.305,215.3,3.392,0.07,20.51,108.7033,21.56,22.6,30.25,0,110.9,13.2,22.39,177.3
"2009-09-07 01:37:00",1218723,1.243,214,2.557,0.071,20.59,108.7003,21.56,22.58,30.19,0,110.9,13.2,22.38,176.0
"2009-09-07 01:37:30",1218724,1.233,212.1,2.292,0.053,20.52,108.6842,21.52,22.57,30.3,0,110.9,13.2,22.34,174.1
"2009-09-07 01:38:00",1218725,1.218,212.6,1.886,0.016,20.58,108.6764,21.5,22.55,30.29,0,110.9,13.2,22.32,174.6
"2009-09-07 01:38:30",1218726,1.286,208.6,2.257,0.039,20.35,108.6738,21.49,22.56,30.35,0,110.9,13.2,22.32,170.6
"2009-09-07 01:39:00",1218727,1.352,204.4,1.318,0.057,20.37,108.6759,21.49,22.55,30.38,0,110.9,13.2,22.32,166.4
"2009-09-07 01:39:30",1218728,1.362,207.3,2.211,0.033,20.34,108.6802,21.51,22.54,30.48,0,110.9,13.2,22.33,169.3
"2009-09-07 01:40:00",1218729,1.511,211.1,1.77,0.083,20.62,108.6805,21.51,22.53,30.46,0,110.9,13.2,22.33,173.1
"2009-09-07 01:40:30",1218730,1.464,205.4,1.597,0.074,20.61,108.6771,21.5,22.53,30.3,0,110.9,13.2,22.32,167.4
"2009-09-07 01:41:00",1218731,1.381,205.9,1.794,0.06,20.47,108.6612,21.46,22.52,30.23,0,110.9,13.2,22.28,167.9
"2009-09-07 01:41:30",1218732,1.389,202.2,4.037,0.134,20.45,108.6556,21.44,22.5,30.41,0,110.9,13.2,22.27,164.2
"2009-09-07 01:42:00",1218733,1.498,201,4.615,0.08,20.55,108.6535,21.44,22.5,30.46,0,110.9,13.2,22.26,163.0
"2009-09-07 01:42:30",1218734,1.663,199.6,2.061,0.034,20.56,108.6581,21.45,22.47,30.47,0,110.9,13.2,22.28,161.6
"2009-09-07 01:43:00",1218735,1.65,198.1,2.456,0.034,20.55,108.6602,21.45,22.48,30.62,0,110.9,13.2,22.28,160.1
"2009-09-07 01:43:30",1218736,1.588,203.3,2.707,0.079,20.61,108.666,21.47,22.48,30.61,0,110.9,13.2,22.30,165.3
"2009-09-07 01:44:00",1218737,1.558,201.5,2.88,0.056,20.57,108.667,21.47,22.46,30.46,0,110.9,13.2,22.30,163.5
"2009-09-07 01:44:30",1218738,1.689,203.3,2.245,0.045,20.58,108.6642,21.46,22.46,30.59,0,110.9,13.2,22.29,165.3
"2009-09-07 01:45:00",1218739,1.639,203.9,1.807,0.052,20.7,108.6586,21.45,22.44,30.5,0,110.8,13.2,22.28,165.9
"2009-09-07 01:45:30",1218740,1.697,207.7,1.324,0.125,20.68,108.6434,21.41,22.43,30.35,0,110.8,13.2,22.24,169.7
"2009-09-07 01:46:00",1218741,1.926,209.9,2.346,0.086,20.57,108.6396,21.4,22.42,30.28,0,110.8,13.2,22.23,171.9
"2009-09-07 01:46:30",1218742,1.629,207.2,2.331,0.106,20.6,108.6399,21.4,22.42,30.33,0,110.8,13.2,22.23,169.2
"2009-09-07 01:47:00",1218743,1.658,206.9,1.53,0.07,20.63,108.6399,21.4,22.4,30.46,0,110.8,13.2,22.23,168.9
"2009-09-07 01:47:30",1218744,1.531,206.9,0.906,0.047,20.56,108.6396,21.4,22.39,30.56,0,110.8,13.2,22.23,168.9